CZ-6A DEB, 61361

Orbit data source: Space-Track

CZ-6A DEB, 61361 is space debris in LEO originally from a launch on Tue, 06 Aug 2024 UTC launched from the Taiyaun Space Center, China (TSC). Debris objects in space refer to the collection of defunct objects orbiting the Earth. Examples of debris include non-operational satellites, rocket bodies, and fragments generated from explosions, collisions, or faulty payload assembly.

Loading next visibility...
Identifier
61361, 2024-140WA
Orbit
LEO
Country
Flag of CNCN / PRC
Related business
Manufacturer
SAST
Mission
Spacecraft
Bus & Motor
Unknown
Mass
Unknown
Launch date (UTC)
2024-08-06 (2 years ago)
Launch vehicle
Unknown
Launch site
Taiyaun Space Center, China (TSC)
Object type
Payload
Rocket body
Debris
Shape & HBR
Unknown shape, 0.1 m
Radar Cross Section
Medium (>0.1 m² and <1 m²)

Expand to show TLE details & history
Last TLE update: 17 hours ago

TLE from 17 hours ago
0 CZ-6A DEB
1 61361U 24140WA  26171.25139307  .00000684  00000-0  15074-3 0  9993
2 61361  89.0384 273.2568 0105559 263.1319  95.7871 14.52925813 95005
Epoch: 2026-06-20T06:02Z
TLE epoch observation values (Epoch: 2026-06-20T06:02:00.361Z)
Latitude
-0.00004°
Longitude
-85.7134°
Altitude
727.543 km
Speed
7.487 km/s
True Right ascension
18h 13m 01s
True Declination
0° 00' 00"
Sunlit
Object was in full shadow at epoch
Visualization orbit readout
Latitude
Unknown
Longitude
Unknown
Altitude
Unknown
Speed
Unknown
Apparent Right ascension
Unknown
Apparent Declination
Unknown
Sunlit
N/A
Visualization observer readout
Local Sidereal Time
10:17:58
Azimuth
Unknown
Elevation
Unknown
Doppler factor
Unknown
Orbital elements
Apogee altitude
787.865 km
Perigee altitude
638.159 km
Semi-major axis
7,091.149 km
Eccentricity
0.01056
Inclination
89.0384°
RAAN
273.2568°
Arg. of periapsis
263.1319°
True anomaly
96.98886°
Mean anomaly
95.7871°
Eccentric anomaly
96.38815°
Mean motion
3.6347 °/min
Orbital period
99.05 mins
BSTAR
0.00015074
Loading maneuver chart data...
Computing Atmospheric mass density...
Loading historical data...
Loading historical data...
Loading historical data...
Loading historical data...
Loading historical data...
Loading historical data...
Loading historical data...

Documentation

Showing up to 5 results
|